Temperature
15 15 15 15 15 15 15 15 15 15 15 15 15 15 15 15 15 15 15 15 14 14 14 14 14 14 14 14 14 14 14 14 14 14 14 14 15 15
15 15 15 15 15 15 14 14 14 14 14 15 15 15 15 15 15 15 15 15 14 14 14 14 14 14 14 14 14 14 14 14 14 14 14 14 14 14
15 15 15 14 14 14 14 14 14 14 14 15 15 15 15 15 15 15 14 14 14 14 14 14 14 14 14 14 14 14 14 14 14 14 14 14 14 14
15 14 14 14 14 14 14 14 14 14 14 14 15 15 15 15 14 14 14 14 14 14 14 14 14 14 14 14 14 14 14 14 14 14 14 14 14 14
15 15 14 14 14 14 14 14 14 14 14 14 14 14 15 14 14 14 14 14 14 14 14 14 14 14 14 14 14 14 13 13 13 13 13 13 13 13
15 15 14 14 14 14 14 14 14 14 14 14 14 14 14 14 14 14 14 14 14 14 14 14 14 14 14 14 14 14 14 14 13 13 13 13 13 13
14 14 14 14 14 14 14 14 14 13 13 13 13 13 14 14 13 13 13 14 14 14 14 14 14 14 14 14 14 14 14 14 13 13 13 13 13 13
13 13 13 13 13 13 13 13 13 13 12 12 13 13 13 13 12 12 12 12 13 14 14 14 14 14 14 14 14 14 14 14 13 13 13 13 13 13
12 12 12 12 12 12 12 12 12 12 11 11 11 11 11 11 11 11 11 11 11 12 12 12 13 13 14 14 14 14 14 14 13 13 13 13 13 13
12 11 11 11 11 11 11 11 11 11 11 11 11 10 10 10 10 10 10 10 11 11 11 11 12 12 13 13 13 13 13 13 13 13 13 13 13 13
11 10 10 10 10 10 10 10 10 10 10 10 10 10 10 10 9 9 9 9 9 10 10 10 11 11 11 12 13 13 13 13 13 13 13 13 13 13
10 9 9 9 9 9 9 9 9 9 9 9 9 8 8 8 8 8 8 8 8 7 8 8 9 8 9 10 11 12 12 12 12 12 12 12 12 12
9 8 8 8 8 8 7 7 7 7 7 7 7 7 7 7 7 7 7 7 6 6 7 7 7 7 7 7 8 9 10 10 11 11 11 12 12 11
8 7 7 7 7 6 6 6 6 6 6 6 6 6 6 6 6 6 6 6 6 6 6 6 6 6 6 6 7 8 8 9 9 10 10 11 11 11
6 6 6 6 6 5 5 5 5 5 5 5 5 5 5 5 5 5 5 5 5 6 6 6 6 6 6 6 6 6 7 7 8 8 9 9 10 10
6 5 5 5 5 4 4 4 4 4 4 4 3 4 4 4 4 4 4 4 5 5 5 5 5 5 5 5 5 6 6 6 7 8 8 9 9 9
4 4 4 4 4 4 4 4 4 3 3 3 3 3 3 3 3 3 3 3 3 4 4 5 5 5 5 5 5 5 5 6 6 7 7 8 8 8
3 3 3 3 3 2 2 2 3 2 2 2 2 2 2 2 2 2 3 3 3 3 3 4 4 4 5 5 6 5 5 5 6 6 6 6 7 8
2 2 2 2 1 1 1 1 1 1 2 2 2 2 1 2 2 2 2 2 2 2 3 3 3 3 3 4 5 5 5 5 5 5 5 6 6 7
1 1 1 1 0 0 0 0 0 1 1 1 1 1 1 1 1 1 1 1 2 2 2 3 3 3 3 3 4 4 4 4 4 5 5 5 6 6
1 0 0 -0 -0 -0 -0 -0 -0 0 0 0 1 1 1 1 1 1 1 1 1 1 2 2 3 3 3 3 3 4 4 5 5 4 5 5 5 6
-0 -0 -0 -1 -1 -1 -1 -1 -1 -0 -0 -0 0 0 0 0 0 1 1 1 1 1 2 2 3 3 3 3 3 3 4 5 5 5 5 5 5 5
-1 -1 -1 -1 -1 -1 -1 -1 -1 -1 -1 -1 -0 -0 -0 0 0 1 1 1 1 1 2 2 2 3 3 3 3 3 4 4 5 5 5 6 6 6
Wind_Speed
3 3 2 2 2 2 2 3 3 2 2 3 2 2 3 5 7 7 9 11 13 13 13 13 13 13 13 13 13 14 14 14 15 15 15 16 16 17
3 4 3 2 2 2 2 2 3 3 3 2 3 2 3 5 6 8 10 13 14 15 16 16 17 17 16 16 16 16 16 16 16 16 16 16 16 16
4 5 5 4 3 3 3 3 3 3 4 4 3 3 3 4 5 6 8 10 11 16 18 19 20 20 20 20 19 19 18 18 18 18 18 18 18 17
6 6 6 4 5 4 4 4 4 5 5 6 4 3 5 4 5 5 7 9 10 15 19 21 22 22 23 23 22 21 21 21 20 20 20 20 20 19
7 7 6 5 6 5 5 5 5 5 5 6 6 3 4 4 4 5 6 7 9 13 16 19 22 23 24 24 24 24 23 22 22 22 22 22 21 21
6 6 5 5 6 6 5 6 5 5 5 6 7 6 5 5 4 5 7 6 7 9 12 14 17 20 22 24 24 24 24 24 24 24 23 23 23 23
2 3 2 3 3 3 3 4 4 5 5 6 7 6 7 5 5 4 7 9 8 7 8 9 10 11 14 17 21 23 24 25 25 25 25 25 25 25
1 2 2 3 3 3 2 1 1 3 4 4 6 7 8 6 5 6 7 8 8 4 5 8 7 9 11 13 17 21 23 25 25 26 26 26 26 26
3 3 3 4 4 2 3 3 2 2 3 4 6 7 7 6 6 8 8 9 11 8 8 12 11 13 12 16 20 23 25 26 26 27 27 27 27 27
5 5 4 4 5 4 3 4 4 4 5 4 5 7 7 7 7 8 10 11 11 10 8 11 12 13 13 15 19 24 26 27 27 27 27 27 27 28
5 5 4 4 6 7 4 5 6 5 6 7 8 10 13 14 11 7 8 8 10 9 7 8 11 12 13 13 15 21 25 26 27 27 27 27 27 26
3 4 5 5 7 7 4 4 6 7 7 8 8 9 9 11 11 8 8 9 9 8 5 6 9 8 9 8 9 11 14 19 23 26 26 26 26 19
3 3 4 8 9 9 6 4 6 8 7 7 7 7 7 6 7 7 8 8 10 10 8 7 10 11 12 12 12 12 12 13 14 16 21 24 25 19
3 3 5 8 9 9 6 7 9 8 5 6 6 7 7 8 8 9 11 12 13 14 14 13 11 12 14 16 15 12 12 12 12 13 13 16 19 22
3 7 8 9 9 7 8 10 8 5 5 6 7 8 8 9 10 10 11 12 13 15 16 15 13 13 13 15 16 15 15 14 13 14 14 13 13 12
5 6 8 8 6 7 7 7 6 6 6 6 7 8 9 9 10 10 10 11 11 13 13 15 14 14 14 16 15 16 15 13 13 14 14 14 14 14
5 4 5 6 7 7 7 7 7 7 7 7 8 9 9 10 11 10 10 10 11 13 14 12 12 12 15 15 15 16 16 16 15 14 14 16 15 15
4 4 6 7 7 8 8 9 8 8 8 9 9 9 10 10 11 11 11 11 12 13 13 13 12 13 13 12 15 17 15 15 14 14 14 15 17 15
5 6 6 7 8 8 8 9 9 9 9 9 9 10 10 10 11 11 11 11 12 12 13 12 11 12 15 17 12 12 14 15 14 15 15 16 17 16
6 7 7 8 8 9 9 9 9 10 9 9 10 10 10 11 11 12 12 13 13 14 14 13 12 12 14 16 16 14 15 16 15 16 16 15 16 16
7 8 8 8 9 9 9 9 10 10 11 11 10 11 11 11 12 12 13 16 15 14 14 14 14 16 14 12 13 14 14 16 18 16 15 15 16 15
8 8 9 9 9 9 9 9 10 10 11 11 11 11 11 11 13 14 14 14 13 14 16 15 15 13 12 14 16 17 17 16 15 20 22 20 15 14
9 9 9 9 9 9 9 10 12 10 10 11 11 11 12 12 12 13 14 14 14 15 15 15 13 12 12 13 14 15 18 17 13 13 14 17 23 25
Wind_Direction
185 182 184 192 182 179 167 163 160 206 263 277 283 290 275 262 258 246 245 245 244 244 246 249 252 255 258 262 264 264 264 263 261 260 259 258 258 257
196 195 207 212 203 194 186 184 179 184 229 256 256 276 287 280 265 248 249 252 253 252 252 253 256 257 259 260 261 262 262 262 262 261 259 258 258 257
206 207 220 212 210 209 201 194 196 189 228 261 247 260 265 269 276 261 256 254 256 257 257 257 258 258 258 260 260 260 259 259 258 258 257 257 256 256
216 213 225 217 218 216 208 212 213 208 221 255 259 251 251 260 265 268 264 259 255 260 259 259 259 258 257 257 258 259 259 257 256 255 254 254 253 253
214 214 224 218 230 229 222 227 230 227 224 245 266 256 258 257 266 270 268 265 264 262 260 260 259 258 257 256 255 256 257 256 255 254 253 253 252 252
222 221 229 228 239 242 238 239 238 238 235 245 264 270 268 264 257 270 280 273 271 271 264 262 260 258 257 255 254 254 254 253 253 253 252 252 252 251
242 228 230 236 244 245 251 253 246 249 252 257 268 276 278 274 272 272 279 286 279 265 267 265 262 262 262 259 255 254 252 252 251 251 250 250 250 250
59 49 54 37 31 34 20 358 304 258 263 262 270 276 283 283 283 280 283 287 287 264 262 275 266 265 263 260 255 252 252 251 251 250 249 249 248 248
75 64 59 46 38 13 357 352 330 307 280 265 273 279 286 292 296 290 280 274 272 278 282 281 274 270 268 264 255 251 251 251 251 250 250 248 247 246
68 67 63 35 23 9 357 349 329 314 298 282 270 276 281 283 277 278 280 280 274 269 260 272 276 272 273 267 258 252 251 252 252 252 250 249 247 246
54 46 40 30 11 9 1 338 324 317 312 306 296 291 288 286 283 281 277 277 282 279 257 261 276 278 277 272 263 253 250 251 252 252 252 251 249 247
40 29 22 6 354 357 350 333 319 315 320 320 313 308 301 296 291 272 269 274 280 283 261 255 278 288 285 272 267 268 264 259 255 254 253 251 250 250
23 1 348 345 343 339 331 306 291 298 305 306 307 307 307 302 296 288 273 266 273 274 275 275 280 279 274 279 279 275 271 270 268 262 256 250 247 239
358 336 327 330 333 331 327 314 312 315 313 313 312 312 311 309 305 300 291 281 271 272 277 275 274 275 277 279 280 277 271 269 267 266 265 257 249 239
338 333 334 337 337 333 329 329 331 330 324 317 314 310 307 304 304 302 298 292 286 281 278 272 270 273 270 273 277 277 277 275 268 265 264 260 257 251
343 336 336 338 339 329 329 333 333 323 314 309 309 308 308 307 304 304 301 302 299 296 290 281 273 271 271 272 273 275 272 270 267 266 265 263 258 251
336 344 351 348 346 342 336 331 327 325 319 313 311 310 309 308 305 305 299 299 295 297 299 297 285 275 268 269 271 270 270 268 266 264 263 263 259 253
4 351 343 338 333 330 327 324 322 320 318 314 311 309 308 307 305 303 298 295 294 294 295 296 297 295 289 276 247 262 267 268 267 263 259 261 262 257
6 347 337 330 325 321 318 315 314 314 312 309 307 307 306 305 304 302 300 296 294 293 293 292 289 287 288 289 276 241 263 272 271 267 261 257 259 261
352 340 332 327 322 318 316 315 314 314 312 310 308 307 306 306 305 302 300 297 297 297 295 290 284 280 279 284 286 282 261 266 270 267 265 262 260 260
339 332 327 322 319 317 314 312 312 311 311 311 309 308 308 307 304 301 300 297 295 294 294 292 289 283 281 281 280 277 273 255 251 259 264 263 262 260
331 327 324 320 319 316 315 315 313 312 313 312 310 309 307 304 301 301 299 298 296 292 291 291 291 289 283 280 280 283 284 279 263 249 248 248 254 255
330 325 321 320 320 318 318 317 315 312 312 312 310 308 306 303 299 297 295 294 294 294 295 296 296 291 285 280 281 282 283 285 281 276 267 248 240 246
Height
1556 1557 1558 1559 1559 1560 1560 1561 1562 1561 1561 1562 1562 1563 1563 1564 1564 1565 1565 1565 1565 1565 1565 1565 1565 1564 1564 1563 1563 1563 1563 1564 1564 1565 1565 1566 1566 1567
1554 1555 1556 1557 1557 1557 1558 1558 1558 1559 1558 1558 1559 1560 1560 1560 1560 1560 1561 1561 1561 1561 1561 1561 1560 1560 1559 1559 1558 1558 1558 1558 1558 1559 1559 1560 1560 1561
1552 1553 1553 1554 1554 1555 1555 1555 1555 1556 1555 1555 1555 1556 1556 1556 1556 1556 1556 1556 1556 1556 1556 1556 1555 1555 1554 1554 1553 1553 1552 1552 1552 1553 1553 1553 1554 1554
1549 1550 1551 1551 1551 1552 1552 1552 1552 1552 1551 1550 1550 1551 1551 1551 1551 1551 1551 1550 1550 1550 1550 1550 1549 1549 1548 1548 1548 1547 1547 1547 1546 1546 1547 1547 1547 1547
1546 1546 1547 1547 1547 1548 1548 1548 1548 1548 1547 1546 1545 1545 1545 1546 1545 1545 1545 1544 1544 1544 1543 1543 1543 1542 1542 1542 1541 1541 1541 1540 1540 1540 1540 1540 1540 1540
1541 1542 1542 1543 1543 1543 1543 1543 1543 1543 1542 1541 1540 1539 1539 1539 1539 1538 1537 1537 1537 1537 1536 1536 1535 1535 1535 1534 1534 1534 1534 1534 1533 1533 1533 1533 1533 1533
1536 1537 1537 1538 1537 1538 1538 1537 1537 1537 1536 1535 1534 1533 1533 1533 1532 1531 1529 1528 1528 1528 1527 1527 1527 1526 1526 1526 1526 1526 1526 1526 1526 1526 1525 1525 1525 1525
1532 1532 1532 1532 1532 1532 1531 1531 1531 1530 1530 1529 1528 1527 1526 1526 1525 1524 1522 1520 1518 1519 1518 1517 1518 1516 1516 1517 1517 1517 1517 1517 1517 1517 1517 1517 1517 1517
1528 1527 1527 1527 1527 1527 1526 1526 1525 1524 1523 1523 1521 1520 1519 1518 1517 1515 1514 1512 1510 1511 1509 1505 1506 1505 1506 1505 1506 1506 1506 1506 1506 1506 1507 1507 1507 1507
1524 1523 1523 1523 1522 1522 1521 1520 1519 1518 1517 1516 1515 1513 1512 1511 1510 1508 1506 1503 1501 1501 1501 1496 1495 1494 1494 1493 1494 1494 1494 1494 1495 1495 1495 1496 1496 1496
1521 1520 1519 1519 1518 1516 1515 1514 1513 1512 1510 1509 1507 1506 1504 1503 1502 1500 1498 1495 1491 1490 1491 1488 1485 1483 1481 1480 1481 1481 1482 1482 1482 1482 1483 1483 1484 1485
1518 1518 1516 1515 1513 1511 1510 1508 1506 1504 1503 1501 1500 1498 1497 1495 1494 1493 1490 1487 1483 1480 1480 1480 1476 1475 1469 1468 1469 1470 1469 1469 1469 1470 1470 1471 1472 1472
1516 1514 1513 1511 1509 1507 1505 1503 1500 1498 1496 1494 1492 1490 1489 1487 1486 1485 1483 1481 1477 1474 1473 1472 1468 1466 1463 1457 1457 1458 1458 1457 1457 1457 1457 1458 1459 1460
1513 1511 1509 1507 1505 1503 1501 1498 1496 1493 1490 1488 1486 1484 1482 1480 1478 1477 1475 1473 1470 1466 1465 1464 1460 1458 1455 1449 1446 1446 1447 1446 1446 1445 1445 1445 1446 1447
1509 1507 1505 1503 1500 1498 1496 1493 1491 1488 1485 1482 1480 1478 1475 1473 1471 1468 1466 1464 1461 1458 1456 1454 1452 1449 1446 1442 1438 1436 1436 1435 1435 1434 1434 1433 1433 1434
1506 1503 1501 1498 1496 1493 1491 1488 1486 1483 1480 1477 1474 1472 1469 1467 1464 1461 1458 1455 1451 1448 1447 1445 1443 1440 1435 1432 1429 1426 1425 1424 1423 1423 1422 1421 1421 1421
1502 1499 1496 1494 1491 1489 1486 1483 1481 1478 1475 1472 1469 1466 1463 1460 1457 1455 1451 1448 1444 1439 1436 1435 1433 1430 1426 1423 1418 1415 1414 1413 1412 1412 1411 1408 1407 1408
1498 1495 1492 1489 1486 1483 1480 1478 1475 1473 1470 1467 1464 1460 1457 1454 1451 1448 1445 1441 1437 1433 1429 1426 1423 1419 1415 1411 1410 1406 1404 1402 1401 1400 1399 1397 1394 1395
1494 1491 1488 1485 1482 1479 1476 1473 1470 1468 1465 1462 1459 1455 1452 1448 1445 1441 1438 1434 1430 1426 1422 1419 1416 1412 1407 1401 1398 1399 1395 1391 1390 1388 1387 1386 1383 1382
1491 1488 1485 1482 1479 1475 1472 1469 1466 1463 1460 1457 1454 1450 1447 1443 1439 1435 1431 1427 1423 1418 1414 1411 1408 1404 1400 1394 1389 1386 1386 1382 1379 1377 1375 1374 1372 1372
1488 1485 1482 1478 1475 1472 1468 1465 1462 1458 1455 1452 1448 1445 1441 1437 1433 1428 1424 1420 1416 1411 1407 1403 1399 1396 1391 1386 1380 1375 1374 1372 1369 1367 1365 1364 1362 1360
1485 1482 1478 1475 1471 1468 1464 1461 1457 1454 1450 1447 1443 1439 1435 1431 1426 1422 1418 1413 1408 1404 1399 1395 1391 1387 1383 1378 1372 1366 1363 1361 1358 1356 1354 1353 1351 1349
1482 1478 1475 1471 1467 1464 1460 1456 1453 1449 1445 1441 1437 1433 1429 1424 1420 1416 1411 1407 1402 1397 1392 1387 1383 1379 1374 1370 1365 1359 1355 1352 1349 1346 1343 1341 1341 1340